Location: ????????
(60.5616°N, 46.8254°E)
Time: 15:06:24
(UTC+00:00)

Cosmos 2151 - Pass Details

Date: 18 February 2020
Orbit: 581 x 602 km, 82.5° (Epoch: 27 March)

Event Time Altitude Azimuth Distance (km) Brightness Sun altitude
Rises 15:05:41 0° 216° (SW) 2,841 7.1 -10.0°
Reaches altitude 10° 15:08:00 10° 224° (SW) 1,945 6.4 -10.3°
Maximum altitude 15:12:04 39° 295° (WNW) 907 4.5 -10.8°
Drops below altitude 10° 15:16:10 10° 5° (N) 1,963 5.5 -11.3°
Sets 15:18:30 0° 13° (NNE) 2,871 6.3 -11.6°
